• In Belarus
  • List of Countries
  • For 7 days
  • Water Temperature
  • Satellite Maps
  • Weather Map
  • Weather Widgets
  • user-avatar
    Login

    Hourly Weather La Paz

    Today, 28 May, Monday

    Time Temperature Precipitation Wind Pressure Humidity
    00:00 +4°C° 0 mm 1 mps 474 mmHg 92%
    01:00 +4°C° 0 mm 1 mps 473 mmHg 92%
    02:00 +4°C° 0 mm 1 mps 473 mmHg 92%
    03:00 +3°C° 0 mm 1 mps 473 mmHg 91%
    04:00 +3°C° 0 mm 1 mps 473 mmHg 91%
    05:00 +4°C° 0 mm 1 mps 473 mmHg 87%
    06:00 +4°C° 0 mm 1 mps 474 mmHg 83%
    07:00 +5°C° 0 mm 1 mps 475 mmHg 79%
    08:00 +7°C° 0 mm 1 mps 476 mmHg 71%
    09:00 +8°C° 0 mm 1 mps 477 mmHg 63%
    10:00 +9°C° 0 mm 2 mps 478 mmHg 56%
    11:00 +10°C° 0.1 mm 2 mps 478 mmHg 54%
    12:00 +10°C° 0.1 mm 2 mps 478 mmHg 52%
    13:00 +12°C° 0.1 mm 2 mps 477 mmHg 50%
    14:00 +10°C° 0.2 mm 2 mps 477 mmHg 52%
    15:00 +10°C° 0.2 mm 2 mps 476 mmHg 53%
    16:00 +10°C° 0.2 mm 2 mps 476 mmHg 54%
    17:00 +8°C° 0 mm 2 mps 475 mmHg 61%
    18:00 +7°C° 0 mm 1 mps 475 mmHg 68%
    19:00 +5°C° 0 mm 0 mps 474 mmHg 75%
    20:00 +5°C° 0 mm 1 mps 474 mmHg 74%
    21:00 +5°C° 0 mm 1 mps 473 mmHg 72%
    22:00 +4°C° 0 mm 1 mps 473 mmHg 71%
    23:00 +3°C° 0 mm 1 mps 473 mmHg 66%

    Tomorrow, 29 May, Tuesday

    Time Temperature Precipitation Wind Pressure Humidity
    00:00 +3°C° 0 mm 1 mps 472 mmHg 60%
    01:00 +2°C° 0 mm 1 mps 472 mmHg 55%
    02:00 +2°C° 0 mm 1 mps 471 mmHg 52%
    03:00 -1°C° 0 mm 2 mps 471 mmHg 49%
    04:00 -1°C° 0 mm 2 mps 470 mmHg 47%
    05:00 +1°C° 0 mm 2 mps 472 mmHg 44%
    06:00 +2°C° 0 mm 2 mps 473 mmHg 41%
    07:00 +4°C° 0 mm 2 mps 474 mmHg 38%
    08:00 +6°C° 0 mm 2 mps 476 mmHg 32%
    09:00 +8°C° 0 mm 2 mps 477 mmHg 26%
    10:00 +10°C° 0 mm 2 mps 478 mmHg 20%
    11:00 +12°C° 0 mm 2 mps 478 mmHg 21%
    12:00 +12°C° 0 mm 2 mps 478 mmHg 22%
    13:00 +13°C° 0 mm 2 mps 478 mmHg 23%
    14:00 +12°C° 0 mm 2 mps 477 mmHg 27%
    15:00 +10°C° 0 mm 2 mps 476 mmHg 31%
    16:00 +10°C° 0 mm 2 mps 476 mmHg 35%
    17:00 +7°C° 0 mm 2 mps 474 mmHg 41%
    18:00 +6°C° 0 mm 1 mps 473 mmHg 48%
    19:00 +4°C° 0 mm 1 mps 472 mmHg 55%
    20:00 +3°C° 0 mm 1 mps 472 mmHg 48%
    21:00 +3°C° 0 mm 1 mps 472 mmHg 42%
    22:00 +3°C° 0 mm 1 mps 472 mmHg 35%
    23:00 +2°C° 0 mm 1 mps 472 mmHg 31%

    Day after tomorrow, 30 May, Wednesday

    Time Temperature Precipitation Wind Pressure Humidity
    00:00 +2°C° 0 mm 1 mps 471 mmHg 27%
    01:00 +2°C° 0 mm 1 mps 471 mmHg 23%
    02:00 +1°C° 0 mm 1 mps 471 mmHg 25%
    03:00 +1°C° 0 mm 1 mps 470 mmHg 26%
    04:00 +1°C° 0 mm 1 mps 470 mmHg 27%
    05:00 +2°C° 0 mm 1 mps 471 mmHg 27%
    06:00 +4°C° 0 mm 1 mps 473 mmHg 27%
    07:00 +5°C° 0 mm 1 mps 474 mmHg 27%
    08:00 +7°C° 0 mm 1 mps 476 mmHg 25%
    09:00 +8°C° 0 mm 2 mps 477 mmHg 23%
    10:00 +10°C° 0 mm 2 mps 478 mmHg 22%
    11:00 +10°C° 0 mm 2 mps 478 mmHg 22%
    12:00 +12°C° 0 mm 2 mps 477 mmHg 22%
    13:00 +13°C° 0 mm 2 mps 477 mmHg 22%
    14:00 +12°C° 0 mm 2 mps 477 mmHg 26%
    15:00 +10°C° 0 mm 2 mps 476 mmHg 30%
    16:00 +9°C° 0 mm 2 mps 475 mmHg 34%
    17:00 +7°C° 0 mm 2 mps 474 mmHg 43%
    18:00 +6°C° 0 mm 1 mps 473 mmHg 51%
    19:00 +3°C° 0 mm 1 mps 472 mmHg 60%
    20:00 +3°C° 0 mm 1 mps 471 mmHg 57%
    21:00 +2°C° 0 mm 1 mps 471 mmHg 55%
    22:00 +2°C° 0 mm 1 mps 471 mmHg 53%
    23:00 +1°C° 0 mm 1 mps 471 mmHg 47%

    31 May, Thursday

    Time Temperature Precipitation Wind Pressure Humidity
    00:00 +1°C° 0 mm 1 mps 470 mmHg 42%
    01:00 +1°C° 0 mm 1 mps 470 mmHg 36%
    02:00 +1°C° 0 mm 1 mps 470 mmHg 36%
    03:00 0°C° 0 mm 1 mps 470 mmHg 35%
    04:00 0°C° 0 mm 1 mps 470 mmHg 35%
    05:00 +2°C° 0 mm 1 mps 471 mmHg 34%
    06:00 +3°C° 0 mm 1 mps 472 mmHg 32%
    07:00 +4°C° 0 mm 1 mps 474 mmHg 31%
    08:00 +5°C° 0 mm 2 mps 475 mmHg 30%
    09:00 +7°C° 0 mm 2 mps 476 mmHg 29%
    10:00 +9°C° 0 mm 3 mps 478 mmHg 28%
    11:00 +10°C° 0 mm 3 mps 477 mmHg 30%
    12:00 +11°C° 0 mm 3 mps 477 mmHg 31%
    13:00 +11°C° 0 mm 3 mps 477 mmHg 32%
    14:00 +10°C° 0 mm 3 mps 476 mmHg 37%
    15:00 +10°C° 0 mm 3 mps 475 mmHg 42%
    16:00 +9°C° 0 mm 2 mps 474 mmHg 46%
    17:00 +7°C° 0.1 mm 2 mps 474 mmHg 57%
    18:00 +6°C° 0.1 mm 2 mps 474 mmHg 67%
    19:00 +4°C° 0.1 mm 2 mps 473 mmHg 78%
    20:00 +4°C° 0 mm 2 mps 473 mmHg 82%
    21:00 +3°C° 0 mm 2 mps 473 mmHg 85%
    22:00 +4°C° 0 mm 1 mps 473 mmHg 89%
    23:00 +3°C° 0 mm 1 mps 472 mmHg 89%

    1 June, Friday

    Time Temperature Precipitation Wind Pressure Humidity
    00:00 +2°C° 0 mm 1 mps 472 mmHg 89%
    01:00 +2°C° 0 mm 1 mps 471 mmHg 89%
    02:00 +1°C° 0 mm 1 mps 471 mmHg 88%
    03:00 +1°C° 0 mm 1 mps 471 mmHg 86%
    04:00 +1°C° 0 mm 1 mps 470 mmHg 84%
    05:00 +2°C° 0 mm 1 mps 471 mmHg 78%
    06:00 +3°C° 0 mm 1 mps 473 mmHg 72%
    07:00 +3°C° 0 mm 2 mps 474 mmHg 66%
    08:00 +5°C° 0 mm 2 mps 475 mmHg 59%
    09:00 +7°C° 0 mm 2 mps 476 mmHg 51%
    10:00 +9°C° 0 mm 3 mps 477 mmHg 44%
    11:00 +9°C° 0 mm 3 mps 477 mmHg 43%
    12:00 +10°C° 0 mm 3 mps 477 mmHg 42%
    13:00 +11°C° 0 mm 3 mps 476 mmHg 42%
    14:00 +10°C° 0 mm 3 mps 476 mmHg 44%
    15:00 +10°C° 0 mm 3 mps 475 mmHg 47%
    16:00 +9°C° 0 mm 2 mps 475 mmHg 50%
    17:00 +8°C° 0 mm 2 mps 474 mmHg 59%
    18:00 +6°C° 0 mm 2 mps 474 mmHg 69%
    19:00 +5°C° 0 mm 2 mps 474 mmHg 79%
    20:00 +5°C° 0.1 mm 2 mps 474 mmHg 83%
    21:00 +4°C° 0.1 mm 2 mps 474 mmHg 86%
    22:00 +4°C° 0.1 mm 2 mps 474 mmHg 89%
    23:00 +5°C° 0 mm 1 mps 474 mmHg 90%

    2 June, Saturday

    Time Temperature Precipitation Wind Pressure Humidity
    00:00 +4°C° 0 mm 1 mps 473 mmHg 91%
    01:00 +4°C° 0 mm 1 mps 473 mmHg 92%
    02:00 +4°C° 0 mm 1 mps 473 mmHg 93%
    03:00 +4°C° 0 mm 1 mps 473 mmHg 93%
    04:00 +3°C° 0 mm 1 mps 473 mmHg 93%
    05:00 +4°C° 0 mm 1 mps 473 mmHg 92%
    06:00 +4°C° 0 mm 1 mps 474 mmHg 90%
    07:00 +5°C° 0 mm 1 mps 475 mmHg 88%
    08:00 +5°C° 0.1 mm 2 mps 475 mmHg 81%
    09:00 +7°C° 0.1 mm 3 mps 476 mmHg 74%
    10:00 +8°C° 0.1 mm 3 mps 477 mmHg 67%
    11:00 +8°C° 0.1 mm 3 mps 476 mmHg 66%
    12:00 +7°C° 0.1 mm 4 mps 476 mmHg 65%
    13:00 +8°C° 0.1 mm 4 mps 475 mmHg 63%
    14:00 +7°C° 0.1 mm 4 mps 475 mmHg 65%
    15:00 +7°C° 0.1 mm 4 mps 474 mmHg 66%
    16:00 +7°C° 0.1 mm 4 mps 474 mmHg 67%
    17:00 +7°C° 0 mm 3 mps 474 mmHg 74%
    18:00 +4°C° 0 mm 3 mps 474 mmHg 80%
    19:00 +4°C° 0 mm 2 mps 473 mmHg 87%
    20:00 +4°C° 0 mm 2 mps 474 mmHg 89%
    21:00 +5°C° 0 mm 1 mps 474 mmHg 91%
    22:00 +4°C° 0 mm 1 mps 474 mmHg 93%
    23:00 +4°C° 0 mm 1 mps 473 mmHg 93%
    Show more